Location: *
(34.6903°N, 135.5184°E)
Time: 20:48:22
(UTC+00:00)

CZ-4B R/B - Pass Details

Date: 22 September 2019
Orbit: 488 x 651 km, 97.8° (Epoch: 18 October)

Event Time Altitude Azimuth Distance (km) Brightness Sun altitude
Rises 19:58:48 0° 2° (N) 2,976 6.7 -10.5°
Reaches altitude 10° 20:01:09 10° 355° (N) 2,057 5.8 -10.0°
Maximum altitude 20:05:19 39° 287° (WNW) 972 3.6 -9.2°
Drops below altitude 10° 20:09:23 10° 219° (SW) 2,001 5.3 -8.4°
Sets 20:11:38 0° 212° (SSW) 2,883 6.1 -7.9°
